[TLELIST] Archives

 

[list_settings.list_name] Current TLEs

October 20th 2013 PDT

HST 1 20580U 90037B 13292.83057766 .00002692 00000-0 17788-3 0 3563 2 20580 028.4691 175.4895 0002954 240.8302 203.6316 15.04035917 88478 ISS (ZARYA) 1 25544U 98067A 13293.25862972 .00013960 00000-0 25408-3 0 8438 2 25544 051.6516 208.6175 0003010 044.7663 090.9668 15.49780250854106 CXO 1 25867U 99040B 13294.86809635 -.00000235 00000-0 00000+0 0 9657 2 25867 076.0956 332.3734 8429721 276.5102 359.9700 00.37803511 11018 ____________________________________________________________________ These 2-Line ...Continue Reading

[list_settings.list_name] Current TLEs

October 19th 2013 PDT

HST 1 20580U 90037B 13291.11694441 .00002698 00000-0 17831-3 0 3554 2 20580 028.4694 186.7301 0002972 221.1049 286.5557 15.04029130 88228 ISS (ZARYA) 1 25544U 98067A 13292.23040837 .00013593 00000-0 24790-3 0 8360 2 25544 051.6516 213.7088 0002923 043.0432 112.2938 15.49749168853946 CXO 1 25867U 99040B 13292.22382268 -.00000332 00000-0 00000+0 0 9640 2 25867 076.0924 332.5088 8431909 276.5454 359.9525 00.37803107 11003 ____________________________________________________________________ These 2-Line ...Continue Reading

[list_settings.list_name] Current TLEs

October 18th 2013 PDT

HST 1 20580U 90037B 13291.11694441 .00002698 00000-0 17831-3 0 3554 2 20580 028.4694 186.7301 0002972 221.1049 286.5557 15.04029130 88228 ISS (ZARYA) 1 25544U 98067A 13291.44859036 .00013593 00000-0 24809-3 0 8306 2 25544 051.6518 217.5800 0002889 041.0377 069.6137 15.49727332853821 CXO 1 25867U 99040B 13292.22382268 -.00000332 00000-0 00000+0 0 9640 2 25867 076.0924 332.5088 8431909 276.5454 359.9525 00.37803107 11003 ____________________________________________________________________ These 2-Line ...Continue Reading

[list_settings.list_name] Current TLEs

October 17th 2013 PDT

HST 1 20580U 90037B 13289.84173819 .00002990 00000-0 19898-3 0 3541 2 20580 028.4697 195.0945 0003022 206.0202 223.4255 15.04024040 88026 ISS (ZARYA) 1 25544U 98067A 13290.41521157 .00012626 00000-0 23129-3 0 8234 2 25544 051.6518 222.6970 0002665 038.3962 063.2634 15.49695258853662 CXO 1 25867U 99040B 13292.22382268 -.00000332 00000-0 00000+0 0 9640 2 25867 076.0924 332.5088 8431909 276.5454 359.9525 00.37803107 11003 ____________________________________________________________________ These 2-Line ...Continue Reading

[list_settings.list_name] Current TLEs

October 16th 2013 PDT

HST 1 20580U 90037B 13288.19177088 .00003357 00000-0 22493-3 0 3532 2 20580 028.4701 205.9171 0003049 187.4897 290.6409 15.04013697 87780 ISS (ZARYA) 1 25544U 98067A 13289.44832414 .00010757 00000-0 19852-3 0 8169 2 25544 051.6505 227.4833 0002913 034.6755 069.2753 15.49662569853515 CXO 1 25867U 99040B 13292.22382268 -.00000332 00000-0 00000+0 0 9640 2 25867 076.0924 332.5088 8431909 276.5454 359.9525 00.37803107 11003 ____________________________________________________________________ These 2-Line ...Continue Reading

[list_settings.list_name] Current TLEs

October 15th 2013 PDT

HST 1 20580U 90037B 13287.13523067 .00002600 00000-0 17149-3 0 3528 2 20580 028.4702 212.8469 0003079 175.8750 330.3995 15.04007668 87626 ISS (ZARYA) 1 25544U 98067A 13288.10868056 .00009411 00000-0 17493-3 0 8098 2 25544 051.6508 234.1159 0002644 031.3596 154.1373 15.49627621853301 CXO 1 25867U 99040B 13289.57989570 -.00000219 00000-0 00000+0 0 9636 2 25867 076.0901 332.6189 8437107 276.5855 000.0224 00.37804987 10996 ____________________________________________________________________ These 2-Line ...Continue Reading

[list_settings.list_name] Current TLEs

October 14th 2013 PDT

HST 1 20580U 90037B 13287.13523067 .00002600 00000-0 17149-3 0 3528 2 20580 028.4702 212.8469 0003079 175.8750 330.3995 15.04007668 87626 ISS (ZARYA) 1 25544U 98067A 13287.38203822 .00009724 00000-0 18054-3 0 8047 2 25544 051.6494 237.7133 0002608 030.3754 058.7781 15.49614433853197 CXO 1 25867U 99040B 13289.57989570 -.00000219 00000-0 00000+0 0 9636 2 25867 076.0901 332.6189 8437107 276.5855 000.0224 00.37804987 10996 ____________________________________________________________________ These 2-Line ...Continue Reading

[list_settings.list_name] Current TLEs

October 13th 2013 PDT

HST 1 20580U 90037B 13285.27335738 .00002231 00000-0 14545-3 0 3513 2 20580 028.4701 225.0585 0003194 156.0346 329.3954 15.04000956 87345 ISS (ZARYA) 1 25544U 98067A 13286.48169131 .00010250 00000-0 18998-3 0 7975 2 25544 051.6502 242.1697 0002612 024.2879 078.9001 15.49598398853052 CXO 1 25867U 99040B 13286.93386196 .00000056 00000-0 00000+0 0 9614 2 25867 076.0764 332.7693 8443413 276.5953 359.8936 00.37805479 10981 ____________________________________________________________________ These 2-Line ...Continue Reading

[list_settings.list_name] Current TLEs

October 12th 2013 PDT

HST 1 20580U 90037B 13284.14467884 .00002192 00000-0 14270-3 0 3506 2 20580 028.4699 232.4567 0003171 144.3571 337.9062 15.03998616 87172 ISS (ZARYA) 1 25544U 98067A 13285.51451512 .00011194 00000-0 20684-3 0 7912 2 25544 051.6505 246.9576 0002651 020.5528 083.6757 15.49581564852907 CXO 1 25867U 99040B 13286.93386196 .00000056 00000-0 00000+0 0 9614 2 25867 076.0764 332.7693 8443413 276.5953 359.8936 00.37805479 10981 ____________________________________________________________________ These 2-Line ...Continue Reading

[list_settings.list_name] Current TLEs

October 11th 2013 PDT

HST 1 20580U 90037B 13284.14467884 .00002192 00000-0 14270-3 0 3506 2 20580 028.4699 232.4567 0003171 144.3571 337.9062 15.03998616 87172 ISS (ZARYA) 1 25544U 98067A 13284.41880267 .00011160 00000-0 20640-3 0 7840 2 25544 051.6509 252.3815 0002616 019.1387 088.6845 15.49556422852735 CXO 1 25867U 99040B 13284.28782675 .00000199 00000-0 00000+0 0 9609 2 25867 076.0620 332.9243 8447292 276.5891 359.8126 00.37802515 10973 ____________________________________________________________________ These 2-Line ...Continue Reading
  • This mailing list is a public mailing list - anyone may join or leave, at any time.
  • This mailing list is announce-only.

International Space Station (ISS) / Hubble Space Telescope (HST) / Chandra X-Ray Observatory Orbital Data via EMAIL

Privacy Policy:

Private list